Weather History for K0E0 - October, 2013

Change the Weather History Date:

Monday, October 28, 2013

  Actual Average (KABQ) Record (KABQ)
Temperature  
Mean Temperature 48 °F 53 °F  
Max Temperature 67 °F 64 °F 79 °F (1950)
Min Temperature 29 °F 42 °F 22 °F (1915)
Degree Days  
Heating Degree Days 17 12  
Month to date heating degree days 202  
Since 1 July heating degree days 228  
Cooling Degree Days 0 0  
Month to date cooling degree days 7  
Year to date cooling degree days 1319  
Moisture  
Dew Point 28 °F    
Average Humidity 56    
Maximum Humidity 95    
Minimum Humidity 18    
Precipitation  
Precipitation 0.00 in 0.02 in 0.95 in (1911)
Month to date precipitation 0.95  
Year to date precipitation 8.31  
Snow  
Snow 0.00 in - - ()
Month to date snowfall  
Since 1 July snowfall  
Since 1 September snowfall  
Snow Depth -    
Sea Level Pressure  
Sea Level Pressure 30.02 in    
Wind  
Wind Speed 4 mph (SSW)    
Max Wind Speed 20 mph    
Max Gust Speed 29 mph    
Visibility 10 miles    
Events      
T = Trace of Precipitation, MM = Missing Value Source: NWS Daily Summary

Daily Weather History Graph

Daily Weather History Graph

Search for Another Location

Airport or City:

Trip Planner

Search our weather history database for the weather conditions in past years. The results will help you decide how hot, cold, wet, or windy it might be!

Date:

Astronomy

Oct. 28, 2013 Rise Set
Actual Time 7:21 AM MDT 6:13 PM MDT
Civil Twilight 6:55 AM MDT 6:39 PM MDT
Nautical Twilight 6:25 AM MDT 7:09 PM MDT
Astronomical Twilight 5:56 AM MDT 7:38 PM MDT
Moon 1:30 AM MDT (10/28) 2:44 PM MDT (10/28)
Length of Visible Light 11h 43m
Length of Day
10h 51m
Waning Crescent, 33% of the Moon is Illuminated
Oct 28
Waning Crescent
Nov 3
New
Nov 9
First Quarter
Nov 17
Full
Nov 25
Last Quarter

Hourly Weather History & Observations

Time (MDT) Temp. Windchill Dew Point Humidity Pressure Visibility Wind Dir Wind Speed Gust Speed Precip Events Conditions
12:15 AM 37.4 °F - 32.7 °F 83% 30.04 in 10.0 mi Calm Calm - N/A   Clear
12:35 AM 35.2 °F - 31.1 °F 85% 30.03 in 10.0 mi Calm Calm - N/A   Clear
12:55 AM 34.7 °F 29.6 °F 31.6 °F 89% 30.03 in 10.0 mi NNW 5.8 mph - N/A   Clear
1:15 AM 34.0 °F 31.0 °F 31.3 °F 90% 30.03 in 10.0 mi NNW 3.5 mph - N/A   Clear
1:35 AM 33.4 °F 30.4 °F 30.7 °F 90% 30.03 in 10.0 mi North 3.5 mph - N/A   Clear
1:55 AM 32.9 °F - 30.7 °F 92% 30.03 in 10.0 mi Calm Calm - N/A   Clear
2:15 AM 33.3 °F - 30.9 °F 91% 30.03 in 10.0 mi Calm Calm - N/A   Clear
2:35 AM 32.9 °F - 30.9 °F 92% 30.03 in 10.0 mi Calm Calm - N/A   Clear
2:55 AM 32.0 °F - 29.5 °F 90% 30.02 in 10.0 mi Calm Calm - N/A   Clear
3:15 AM 32.0 °F - 29.3 °F 90% 30.02 in 10.0 mi Calm Calm - N/A   Clear
3:35 AM 31.8 °F 27.3 °F 29.5 °F 91% 30.02 in 10.0 mi North 4.6 mph - N/A   Clear
3:55 AM 32.0 °F - 30.2 °F 93% 30.01 in 10.0 mi Calm Calm - N/A   Clear
4:15 AM 31.8 °F 28.5 °F 29.3 °F 90% 30.01 in 10.0 mi NW 3.5 mph - N/A   Clear
4:35 AM 32.0 °F - 30.4 °F 94% 30.00 in 10.0 mi Calm Calm - N/A   Clear
4:55 AM 31.1 °F 26.4 °F 29.3 °F 93% 30.00 in 10.0 mi NNW 4.6 mph - N/A   Clear
5:15 AM 30.7 °F 27.3 °F 28.9 °F 93% 30.01 in 10.0 mi NNW 3.5 mph - N/A   Clear
5:35 AM 32.0 °F - 29.7 °F 91% 30.01 in 10.0 mi Calm Calm - N/A   Clear
5:55 AM 30.2 °F 26.7 °F 28.6 °F 94% 30.01 in 10.0 mi North 3.5 mph - N/A   Clear
6:15 AM 29.8 °F 24.9 °F 28.0 °F 93% 30.01 in 10.0 mi NNW 4.6 mph - N/A   Clear
6:35 AM 30.7 °F 27.3 °F 28.9 °F 93% 30.01 in 10.0 mi NNW 3.5 mph - N/A   Clear
6:55 AM 31.3 °F 27.9 °F 29.7 °F 94% 30.01 in 10.0 mi NNW 3.5 mph - N/A   Clear
7:15 AM 31.1 °F - 29.8 °F 95% 30.02 in 10.0 mi Calm Calm - N/A   Clear
7:35 AM 30.7 °F 27.3 °F 28.9 °F 93% 30.02 in 10.0 mi North 3.5 mph - N/A   Clear
7:55 AM 32.0 °F - 30.6 °F 94% 30.02 in 10.0 mi Calm Calm - N/A   Clear
8:15 AM 34.0 °F - 32.0 °F 92% 30.04 in 10.0 mi Calm Calm - N/A   Clear
8:35 AM 36.7 °F - 33.3 °F 87% 30.05 in 10.0 mi Calm Calm - N/A   Clear
8:55 AM 39.2 °F - 34.7 °F 84% 30.05 in 10.0 mi Calm Calm - N/A   Clear
9:15 AM 40.8 °F - 35.6 °F 82% 30.06 in 10.0 mi Calm Calm - N/A   Clear
9:35 AM 43.9 °F - 36.3 °F 75% 30.06 in 10.0 mi Calm Calm - N/A   Clear
9:55 AM 50.0 °F - 37.0 °F 61% 30.06 in 10.0 mi Calm Calm - N/A   Clear
10:15 AM 51.4 °F - 36.9 °F 58% 30.05 in 10.0 mi Calm Calm - N/A   Clear
10:35 AM 52.5 °F - 36.9 °F 55% 30.05 in 10.0 mi Calm Calm - N/A   Clear
10:55 AM 54.5 °F - 37.2 °F 52% 30.05 in 10.0 mi Calm Calm - N/A   Clear
11:15 AM 55.6 °F - 37.0 °F 50% 30.05 in 10.0 mi Calm Calm - N/A   Clear
11:35 AM 57.0 °F - 37.0 °F 47% 30.04 in 10.0 mi South 5.8 mph - N/A   Clear
11:55 AM 60.6 °F - 32.0 °F 34% 30.04 in 10.0 mi South 8.1 mph - N/A   Clear
12:15 PM 61.5 °F - 33.3 °F 35% 30.02 in 10.0 mi Calm Calm - N/A   Clear
12:35 PM 63.5 °F - 32.7 °F 32% 30.02 in 10.0 mi SW 3.5 mph 9.2 mph N/A   Clear
12:55 PM 63.9 °F - 26.2 °F 24% 30.01 in 10.0 mi SSW 9.2 mph - N/A   Clear
1:15 PM 65.8 °F - 25.5 °F 22% 29.99 in 10.0 mi SSW 11.5 mph 18.4 mph N/A   Clear
1:35 PM 66.7 °F - 21.9 °F 18% 29.98 in 10.0 mi SW 8.1 mph 18.4 mph N/A   Clear
1:55 PM 67.3 °F - 27.3 °F 22% 29.98 in 10.0 mi SW 12.7 mph 23.0 mph N/A   Clear
2:15 PM 66.4 °F - 24.4 °F 20% 29.96 in 10.0 mi SSW 17.3 mph 23.0 mph N/A   Clear
2:35 PM 66.2 °F - 23.9 °F 20% 29.96 in 10.0 mi South 17.3 mph - N/A   Clear
2:55 PM 66.2 °F - 22.5 °F 19% 29.96 in 10.0 mi South 16.1 mph 25.3 mph N/A   Clear
3:15 PM 66.2 °F - 21.9 °F 19% 29.96 in 10.0 mi South 18.4 mph 24.2 mph N/A   Clear
3:35 PM 66.2 °F - 22.6 °F 19% 29.97 in 10.0 mi SSW 18.4 mph 28.8 mph N/A   Clear
3:55 PM 65.7 °F - 21.9 °F 19% 29.98 in 10.0 mi SSW 17.3 mph 21.9 mph N/A   Clear
4:15 PM 65.5 °F - 21.7 °F 19% 29.97 in 10.0 mi South 18.4 mph 21.9 mph N/A   Clear
4:35 PM 64.9 °F - 22.1 °F 20% 29.98 in 10.0 mi South 19.6 mph 24.2 mph N/A   Clear
4:55 PM 64.6 °F - 21.4 °F 19% 29.98 in 10.0 mi South 18.4 mph - N/A   Clear
5:15 PM 63.9 °F - 21.0 °F 19% 29.98 in 10.0 mi South 18.4 mph 25.3 mph N/A   Clear
5:35 PM 62.6 °F - 21.2 °F 20% 29.98 in 10.0 mi SSW 13.8 mph - N/A   Clear
5:55 PM 60.1 °F - 21.7 °F 23% 29.99 in 10.0 mi South 13.8 mph - N/A   Clear
6:15 PM 57.7 °F - 21.6 °F 25% 30.00 in 10.0 mi South 15.0 mph - N/A   Clear
6:35 PM 54.7 °F - 22.1 °F 28% 30.01 in 10.0 mi South 9.2 mph - N/A   Clear
6:55 PM 51.4 °F - 22.3 °F 32% 30.01 in 10.0 mi South 6.9 mph - N/A   Clear
7:15 PM 49.5 °F - 23.0 °F 35% 30.02 in 10.0 mi SSE 9.2 mph - N/A   Clear
7:35 PM 51.1 °F - 23.0 °F 33% 30.02 in 10.0 mi SSE 9.2 mph - N/A   Clear
7:55 PM 50.2 °F - 22.8 °F 34% 30.02 in 10.0 mi South 9.2 mph - N/A   Clear
8:15 PM 50.0 °F - 23.0 °F 35% 30.02 in 10.0 mi South 11.5 mph - N/A   Clear
8:35 PM 48.7 °F - 23.5 °F 37% 30.02 in 10.0 mi South 9.2 mph - N/A   Clear
8:55 PM 47.1 °F - 23.9 °F 40% 30.03 in 10.0 mi SSE 9.2 mph - N/A   Clear
9:15 PM 47.3 °F - 23.4 °F 39% 30.04 in 10.0 mi South 10.4 mph - N/A   Clear
9:35 PM 45.9 °F 41.7 °F 23.9 °F 42% 30.04 in 10.0 mi South 8.1 mph - N/A   Clear
9:55 PM 44.6 °F 40.2 °F 23.9 °F 44% 30.04 in 10.0 mi SSE 8.1 mph - N/A   Clear
10:15 PM 45.1 °F 41.4 °F 24.4 °F 44% 30.04 in 10.0 mi SSE 6.9 mph - N/A   Clear
10:35 PM 44.8 °F 41.6 °F 24.1 °F 44% 30.04 in 10.0 mi South 5.8 mph - N/A   Clear
10:55 PM 44.2 °F 41.0 °F 24.1 °F 45% 30.05 in 10.0 mi SSW 5.8 mph - N/A   Clear
11:15 PM 45.3 °F 41.6 °F 23.9 °F 43% 30.05 in 10.0 mi South 6.9 mph - N/A   Clear
11:35 PM 45.9 °F 43.6 °F 23.9 °F 42% 30.04 in 10.0 mi SSE 4.6 mph - N/A   Clear
11:55 PM 46.4 °F 41.9 °F 23.5 °F 41% 30.05 in 10.0 mi SSE 9.2 mph - N/A   Clear